Regional Weather Roundup
Issued by NWS Columbia, SC

Home | Current Version | Previous Version | Text Only | Print | Product List | Glossary On
Versions: 1 2 3 4 5 6 7 8 9 10 11 12 13 14 15 16 17 18 19 20 21 22 23 24 25 26 27 28 29 30 31 32 33 34 35 36 37 38 39 40 41 42 43 44 45 46 47 48 49 50
000
ASUS42 KCAE 060210
RWRCAE
REGIONAL WEATHER ROUNDUP
NATIONAL WEATHER SERVICE COLUMBIA SC
900 PM EST THU MAR 05 2015

NOTE: "FAIR" INDICATES FEW OR NO CLOUDS BELOW 12,000 FEET WITH NO
SIGNIFICANT WEATHER AND/OR OBSTRUCTIONS TO VISIBILITY.

NOT ALL STATIONS ARE QUALITY CONTROLLED BY THE NATIONAL
WEATHER SERVICE. USE DATA WITH CAUTION...ESPECIALLY
DEWPOINT OBSERVATIONS.

SCZ001>056-GAZ040-063>065-077-060300-
...UPSTATE SOUTH CAROLINA...

CITY           SKY/WX    TMP DP  RH WIND       PRES   REMARKS
ANDERSON       CLOUDY    41  38  89 NE6       30.22R
LIBERTY        CLOUDY    38  38  99 MISG      30.20R
SPARTANBURG    DRIZZLE   41 N/A N/A NE13      30.25R
CLEMSON        CLOUDY    44  37  76 E8        30.22R
GREENVILLE     CLOUDY    38  29  70 N10       30.23R WCI  31
GREENWOOD      LGT RAIN  46  43  89 NE13      30.22R
GREER          CLOUDY    38  30  73 N14       30.22R WCI  30
ROCK HILL      CLOUDY    39  32  76 NE14G22   30.25R WCI  31
CHESTER        CLOUDY    43  37  81 NE12G23   30.23S
LAURENS        RAIN      43  43 100 NE9G22    30.20R


...CENTRAL SOUTH CAROLINA...

CITY           SKY/WX    TMP DP  RH WIND       PRES   REMARKS
COLUMBIA APT   LGT RAIN  46  43  89 N13G20    30.21R FOG
COLUMBIA OWENS CLOUDY    46  42  86 N9        30.22R
DARLINGTON     CLOUDY    41  36  81 NE22G29   30.23R
FLORENCE       LGT RAIN  42  39  89 N17G28    30.22R
MCENTIRE ANGB  LGT RAIN  45  43  93 N10G20    30.22R FOG
ORANGEBURG     LGT RAIN  49  45  86 NE13G24   30.17R
SUMTER SHAW    LGT RAIN  43  42  94 NE18      30.19R FOG
NEWBERRY       CLOUDY    43  41  93 NE15G26   30.25R
AIKEN          DRIZZLE   50  46  87 N17       30.20R
BARNWELL       CLOUDY    59  57  94 NW7       30.14R
MANNING        LGT RAIN N/A N/A N/A N12G23    30.17R
CAMDEN         LGT RAIN  41  39  93 N13G23    30.23R
LANCASTER      LGT RAIN  39  39 100 NE9G25    30.25R WCI  33
WINNSBORO      LGT RAIN  41  41 100 N7G21     30.21R


...EASTERN AND COASTAL SOUTH CAROLINA...

CITY           SKY/WX    TMP DP  RH WIND       PRES   REMARKS
MYRTLE BEACH   CLOUDY    45  41  87 N15       30.14R FOG
N MYRTLE BCH   LGT RAIN  43  40  89 NE10      30.13S
CONWAY         LGT RAIN  43  43 100 N7        30.17R
MARION         RAIN      43  41  93 N14G20    30.22R
HARTSVILLE     CLOUDY    37  37 100 N14G22    30.22R WCI  29
FLORENCE       LGT RAIN  42  39  89 N17G28    30.22R
DARLINGTON     CLOUDY    41  36  81 NE22G29   30.23R
CHARLESTON APT LGT RAIN  65  63  93 W5        30.09R
MOUNT PLEASANT DRIZZLE   64  64 100 CALM      30.09R
WALTERBORO     CLOUDY    63  63 100 NW8       30.10R
BEAUFORT       CLOUDY    63  61  93 W9        30.10R


...EASTERN GEORGIA...

CITY           SKY/WX    TMP DP  RH WIND       PRES   REMARKS
AUGUSTA BUSH F CLOUDY    53  45  74 NW12      30.17R
AUGUSTA DANIEL CLOUDY    52  43  71 NW14      30.18R
THOMSON        CLOUDY    48  43  81 W7        30.23R
WASHINGTON     FAIR      45  43  93 NW5       30.19R
CLAXTON        CLOUDY    59  55  88 NW12      30.13R
SYLVANIA       RAIN      58  56  94 NW18G24   30.14R
STATESBORO     CLOUDY    56  56 100 NW17      30.15R
SAVANNAH       CLOUDY    63  59  87 W7        30.10R


...SOUTHERN NORTH CAROLINA...

CITY           SKY/WX    TMP DP  RH WIND       PRES   REMARKS
CHARLOTTE      CLOUDY    38  30  73 N14       30.26R WCI  30
MONROE         CLOUDY    39  33  79 N16G28    30.25R WCI  30
WADESBORO      CLOUDY    38  33  81 N16       30.27R WCI  29
ROCKINGHAM       N/A     37  34  89 NE13      30.22S WCI  28
RUTHERFORDTON  CLOUDY    36  28  72 NE8       30.25R WCI  29
ASHEVILLE      CLOUDY    29  21  72 N20G29    30.24S WCI  16

$$



USA.gov is the U.S. government's official web portal to all federal, state and local government web resources and services.